Regional Weather Roundup
Issued by NWS Lake Charles, LA

Home | Current Version | Previous Version | Text Only | Print | Product List | Glossary On
Versions: 1 2 3 4 5 6 7 8 9 10 11 12 13 14 15 16 17 18 19 20 21 22 23 24 25 26 27 28 29 30 31 32 33 34 35 36 37 38 39 40 41 42 43 44 45 46 47 48 49 50
000
ASUS44 KLCH 271310
RWRLCH
RWRLCH
REGIONAL WEATHER ROUNDUP
NATIONAL WEATHER SERVICE LAKE CHARLES LA
800 AM CDT FRI MAR 27 2015

Note: "fair" indicates few or no clouds below 12,000 feet with no
significant weather and/or obstructions to visibility.


ACROSS SOUTHEAST TEXAS

CITY           SKY/WX    TMP DP  RH WIND       PRES   REMARKS
BEAUMONT       CLEAR     49  47  93 NW5       30.12S
BEAUMONT CITY    N/A     45  45 100 CALM      30.14R
ORANGE         SUNNY     46  44  92 CALM      30.14S
JASPER         CLEAR     42  42  99 CALM      30.15S
$$

ACROSS CENTRAL LOUISIANA

CITY           SKY/WX    TMP DP  RH WIND       PRES   REMARKS
LEESVILLE      SUNNY     45  44  97 MISG      30.11R
FULLERTON        N/A     45  41  86 CALM      30.10R
ALEXANDRIA INT SUNNY     45  44  97 NW3       30.12R
ESLER FIELD    SUNNY     44  43  96 VRB3      30.13R
DERIDDER         N/A     44  42  95 CALM      30.14R
OAKDALE        SUNNY     45  44  96 CALM      30.13R
OPELOUSAS        N/A     46  44  95 NW6       30.10R
$$

ACROSS SOUTHWEST AND SOUTH CENTRAL LOUISIANA

CITY           SKY/WX    TMP DP  RH WIND       PRES   REMARKS
SULPHUR        SUNNY     48  48 100 NW5       30.14R
LAKE CHARLES   SUNNY     48  45  89 NW3       30.12R
CHENNAULT INT  NOT AVBL
CAMERON PHI    NOT AVBL
DEQUINCY         N/A     43  43 100 CALM      30.13R
JENNINGS         N/A     48  46  93 NW9       30.12R
LAFAYETTE      SUNNY     48  43  82 NW7       30.09R
NEW IBERIA     SUNNY     49  43  80 NW5       30.10R
ABBEVILLE        N/A     46  44  92 NW5       30.10R
PATTERSON      SUNNY     50  37  62 N8        30.08R
SALT POINT       N/A     50  42  74 N6        30.06R
$$

SELECTED SITES ACROSS THE REGION

CITY           SKY/WX    TMP DP  RH WIND       PRES   REMARKS
HOUSTON BUSH   CLEAR     48  41  76 W3        30.15R
HOUSTON HOBBY  CLEAR     48  42  80 W6        30.15R
GALVESTON      CLEAR     56  46  69 NW5       30.15R
COLLEGE STAT   CLEAR     44  39  82 CALM      30.17R
CONROE         CLEAR     40  38  93 CALM      30.16R
HUNTSVILLE     CLEAR     44  38  79 SW3       30.15R
LUFKIN         CLEAR     43  39  86 CALM      30.13R
SHREVEPORT     PTCLDY    42  39  89 CALM      30.11R
MONROE         FOG       41  41 100 CALM      30.12R VSB 1/4
NATCHEZ MS     SUNNY     41  37  87 NW5       30.10R
BATON ROUGE    SUNNY     47  39  74 VRB3      30.08R
N.O. INTL ARPT MOSUNNY   53  43  68 N12       30.03R
SLIDELL        MOSUNNY   51  45  79 N14       30.02R
$$

MARINE REPORTS

STATION/POSITION TIME  TEMP    WIND        PRES    VSBY  WAVE
                       AIR SEA DIR/SP/G                  HT/PER
                 (UTC) (F)     (DEG/KT/KT) (MB)    (MI)  (FT/S)
BUOY 30 S HIGH I 1250   57 63   10/  4/  6 1020.0R         2/ 4
SEA RIM ST PARK  1300   51     290/  4/  4 1020.8R
PORT ARTHUR      1200      67  340/  3/  4 1020.1R
SABINE PASS N    1200   54 66   40/  3/  4 1020.0S
TEXAS POINT      NOT AVBL
CALCASIEU PASS   1200   50 66  330/  5/  7   N/A
LK CHARLES BEACH 1200   49 67              1019.6R
MARSH ISLAND     NOT AVBL
FRESH WATER LOCK 1200   46 69  320/  6/  7 1018.6R
AMERADA PASS     1200   51 56  320/  8/ 13 1017.3R
$$



USA.gov is the U.S. government's official web portal to all federal, state and local government web resources and services.